Regional Weather Roundup
Issued by NWS Jackson, KY

Home | Current Version | Previous Version | Graphics & Text | Print | Product List | Glossary On
Versions: 1 2 3 4 5 6 7 8 9 10 11 12 13 14 15 16 17 18 19 20 21 22 23 24 25 26 27 28 29 30 31 32 33 34 35 36 37 38 39 40 41 42 43 44 45 46 47 48 49 50
000
ASUS43 KJKL 211405
RWRJKL

EAST KENTUCKY HOURLY WEATHER ROUNDUP
NATIONAL WEATHER SERVICE JACKSON KY
1000 AM EDT TUE OCT 21 2014

NOTE: "FAIR" INDICATES FEW OR NO CLOUDS BELOW 12,000 FEET WITH
NO SIGNIFICANT WEATHER AND/OR OBSTRUCTIONS TO VISIBILITY.

* THESE REPORTS ARE NOT UNDER NWS QUALITY CONTROL AND MAY NOT
  REPORT WEATHER SUCH AS PRECIPITATION AND FOG.

KYZ079-080-083-085-087-088-110-112-115-119-120-211500
...EASTERN KENTUCKY...

CITY           SKY/WX    TMP DP  RH WIND       PRES   REMARKS
JACKSON        CLOUDY    51  48  89 W7        30.00R FOG
LONDON         SUNNY     53  48  83 NW6       30.03R
SOMERSET*      SUNNY     50  50 100 CALM      30.05S
MONTICELLO*    SUNNY     56  51  83 NW7       30.06R
MIDDLESBORO*   MOSUNNY   52  49  90 CALM      30.02S
HARLAN APT*    CLOUDY    54  50  87 W3        30.01S
BLACK MTN*       N/A     45  45 100 SW3         N/A
PIKEVILLE APT* CLOUDY    50  48  93 W6        29.98R
BIG SANDY*     CLOUDY    52  50  93 W3        29.98R
MOREHEAD APT*  CLOUDY    50  48  93 NW12      30.02R
$$

KYZ035-036-041-042-044-050-067-078-099-211500
...CENTRAL KENTUCKY...

CITY           SKY/WX    TMP DP  RH WIND       PRES   REMARKS
MT STERLING*   CLOUDY    50  46  87 N6        30.03R FOG
FLEMING/MASON* CLOUDY    50  46  85 NW10      30.02R
DANVILLE*      CLOUDY    50  46  87 NW8       30.05R
RICHMOND*      CLOUDY    50  46  87 NW8       30.02R
LEXINGTON      CLOUDY    53  46  77 NW8       30.03R
FRANKFORT      CLOUDY    51  46  83 NW8       30.04R
$$

KYZ091>093-OHZ055-061-077-WVZ005-015-034-035-042-211500
...SOUTHERN OHIO/WEST VIRGINIA...

CITY           SKY/WX    TMP DP  RH WIND       PRES   REMARKS
COVINGTON      CLOUDY    51  44  77 NW9       30.03R
COLUMBUS       CLOUDY    49  45  86 NW12      29.95R
DAYTON         CLOUDY    50  44  80 NW12      30.01R
WILMINGTON     MOSUNNY   50  42  74 NW14      29.99R
HUNTINGTON     CLOUDY    53  49  86 NW7       29.95R
CHARLESTON     LGT RAIN  54  50  86 W12G20    29.93R
PINEVILLE*     CLOUDY    52  52 100 MISG      29.99F
BECKLEY        CLOUDY    50  46  86 SW8       29.94S
BLUEFIELD      CLOUDY    52  46  80 W9        29.96S
$$

VAZ002-007-008-TNZ017-027-036-066-071-211500
...SOUTHWEST VIRGINIA/EAST TENNESSEE...

CITY           SKY/WX    TMP DP  RH WIND       PRES   REMARKS
WISE*          CLOUDY    50  50 100 W8        30.00S
JONESVILLE*    SUNNY     50  50 100 CALM      30.03S
ABINGDON*      CLOUDY    54  53  95 W8        29.99S FOG
BRISTOL        CLOUDY    56  51  84 SW5       30.00R
KNOXVILLE      MOSUNNY   57  51  80 SW8       30.03R
OAK RIDGE      SUNNY     57  50  77 CALM      30.04R
CROSSVILLE     SUNNY     54  49  83 W6        30.06R
NASHVILLE      SUNNY     58  52  80 NW3       30.07R
$$

...KEY TO REMARKS...
VSB - VISIBILITY IN MILES
WCI - WIND CHILL INDEX
HX  - HEAT INDEX

$$



USA.gov is the U.S. government's official web portal to all federal, state and local government web resources and services.